Weather History for Mtwara, Tanzania

Change the Weather History Date:

Tuesday, September 10, 2013

  Actual Average Record
Temperature  
Mean Temperature 76 °F -  
Max Temperature 87 °F - - ()
Min Temperature 64 °F - - ()
Cooling Degree Days 10    
Growing Degree Days 26 (Base 50)    
Moisture  
Dew Point 68 °F    
Average Humidity 69    
Maximum Humidity 88    
Minimum Humidity 40    
Precipitation  
Precipitation 0.00 in 0.02 in - ()
Sea Level Pressure  
Sea Level Pressure 29.99 in    
Wind  
Wind Speed 8 mph ()    
Max Wind Speed 23 mph    
Max Gust Speed -    
Visibility 8.8 miles    
Events      
T = Trace of Precipitation, MM = Missing Value Source: Averaged Metar Reports

Daily Weather History Graph

Daily Weather History Graph

Search for Another Location

Airport:

Trip Planner

Search our weather history database for the weather conditions in past years. The results will help you decide how hot, cold, wet, or windy it might be!

Date:

Astronomy

Sep. 10, 2013 Rise Set
Actual Time 6:16 AM EAT 6:16 PM EAT
Civil Twilight 5:55 AM EAT 6:37 PM EAT
Nautical Twilight 5:31 AM EAT 7:01 PM EAT
Astronomical Twilight 5:06 AM EAT 7:26 PM EAT
Moon 9:46 AM EAT (9/10) 10:38 PM EAT (9/10)
Length of Visible Light 12h 41m
Length of Day
11h 59m
Waxing Crescent, 25% of the Moon is Illuminated
Sep 10
Waxing Crescent
Sep 12
First Quarter
Sep 19
Full
Sep 27
Last Quarter
Oct 5
New

Hourly Weather History & Observations

Time (EAT) Temp. Heat Index Dew Point Humidity Pressure Visibility Wind Dir Wind Speed Gust Speed Precip Events Conditions
12:00 AM 72 °F - 67 °F 79% 30.05 in 19 mi Calm Calm - -   Scattered Clouds
12:00 AM 73.4 °F - 66.2 °F 78% 30.04 in 6.2 mi Calm Calm - N/A   Partly Cloudy
4:00 AM 69.8 °F - 66.2 °F 88% 29.98 in 6.2 mi East 5.8 mph - N/A   Partly Cloudy
5:00 AM 69.8 °F - 66.2 °F 88% 30.01 in 6.2 mi East 5.8 mph - N/A   Partly Cloudy
6:00 AM 69.8 °F - 66.2 °F 88% 30.01 in 6.2 mi East 9.2 mph - N/A   Partly Cloudy
7:00 AM 69.8 °F - 66.2 °F 88% 30.01 in 6.2 mi WSW 6.9 mph - N/A   Mostly Cloudy
9:00 AM 77 °F - 70 °F 74% 30.05 in 19 mi South 12.7 mph - -   Scattered Clouds
9:00 AM 77.0 °F - 69.8 °F 78% 30.04 in 6.2 mi South 12.7 mph - N/A   Mostly Cloudy
10:00 AM 84.2 °F 87.3 °F 68.0 °F 58% 30.04 in 6.2 mi South 11.5 mph - N/A   Mostly Cloudy
11:00 AM 86.0 °F 88.2 °F 66.2 °F 51% 30.04 in 6.2 mi East 19.6 mph - N/A   Scattered Clouds
12:00 PM 87 °F - 66 °F 40% 30.02 in 19 mi ESE 13.8 mph - -   Partly Cloudy
12:00 PM 87.8 °F 90.4 °F 66.2 °F 49% 30.01 in 6.2 mi ESE 13.8 mph - N/A   Partly Cloudy
1:00 PM 86.0 °F 88.2 °F 66.2 °F 51% 29.98 in 6.2 mi SE 23.0 mph - N/A   Partly Cloudy
2:00 PM 86.0 °F 88.2 °F 66.2 °F 51% 29.98 in 6.2 mi SE 17.3 mph - N/A   Partly Cloudy
3:00 PM 85 °F - 67 °F 46% 29.96 in 19 mi ESE 16.1 mph - -   Partly Cloudy
3:00 PM 86.0 °F 89.4 °F 68.0 °F 55% 29.95 in 6.2 mi ESE 16.1 mph - N/A   Scattered Clouds
4:00 PM 84.2 °F 86.6 °F 66.2 °F 55% 29.95 in 6.2 mi East 13.8 mph - N/A   Scattered Clouds
5:00 PM 80.6 °F 83.2 °F 68.0 °F 65% 29.95 in 6.2 mi ESE 11.5 mph - N/A   Scattered Clouds
6:00 PM 79 °F - 69 °F 63% 29.97 in 19 mi ESE 15.0 mph - -   Scattered Clouds
6:00 PM 78.8 °F - 68.0 °F 69% 29.95 in 6.2 mi ESE 15.0 mph - N/A   Mostly Cloudy
7:00 PM 77.0 °F - 69.8 °F 78% 29.95 in 6.2 mi ESE 6.9 mph - N/A   Mostly Cloudy
8:00 PM 77.0 °F - 69.8 °F 78% 29.98 in 6.2 mi ESE 5.8 mph - N/A   Mostly Cloudy
9:00 PM 75.2 °F - 69.8 °F 83% 29.98 in 6.2 mi SE 11.5 mph - N/A   Mostly Cloudy
10:00 PM 75.2 °F - 69.8 °F 83% 29.98 in 6.2 mi ESE 5.8 mph - N/A   Mostly Cloudy
11:00 PM 75.2 °F - 69.8 °F 83% 29.98 in 6.2 mi ESE 6.9 mph - N/A   Mostly Cloudy